Regional Weather Roundup
Issued by NWS Kansas City/Pleasant Hill, MO

Home | Current Version | Previous Version | Graphics & Text | Print | Product List | Glossary Off
Versions: 1 2 3 4 5 6 7 8 9 10 11 12 13 14 15 16 17 18 19 20 21 22 23 24 25 26 27 28 29 30 31 32 33 34 35 36 37 38 39 40 41 42 43 44 45 46 47 48 49 50

000
ASUS43 KEAX 040810
RWREAX

WEATHER ROUNDUP FOR EASTERN KANSAS AND NORTHWEST MISSOURI
NATIONAL WEATHER SERVICE KANSAS CITY/PLEASANT HILL MO
300 AM CDT FRI SEP 04 2015

KSZ040-057-103>105-MOZ028-029-037-043-040900-
...KANSAS CITY METROPOLITAN AREA...

CITY           SKY/WX    TMP DP  RH WIND       PRES   REMARKS
K.C. INTL      PTCLDY    72  67  84 S9        29.93S
K.C. DOWNTOWN  PTCLDY    77  68  73 SW5       29.92S
LEES SUMMIT    CLEAR     75  67  76 S6        29.95S
OLATHE - IXD   PTCLDY    73  67  81 SE7       29.95S
OLATHE - OJC   PTCLDY    70  67  90 SE5       29.94S
LAWRENCE       PTCLDY    71  68  90 SE7       29.92S

$$

MOZ001>008-011>017-020>025-030>033-038>040-044>046-053-054-040900-
...NORTHERN AND CENTRAL MISSOURI...

CITY           SKY/WX    TMP DP  RH WIND       PRES   REMARKS
ST. JOSEPH     MOCLDY    72  68  87 S5        29.92R
MOSBY          MOSUNNY   70  68  94 CALM      29.93S
WARRENSBURG    PTCLDY    72  68  88 SE3       29.95S
WHITEMAN AFB   PTCLDY    72  68  87 S6        29.95R
CLINTON        CLEAR     72  70  94 CALM      29.96S
SEDALIA        PTCLDY    73  68  84 S7        29.97S
WARSAW         NOT AVBL
CHILLICOTHE      N/A     70  68  93 CALM      29.95S
KIRKSVILLE     CLEAR     71  67  87 SW3       29.97S

$$

MOZ041-047>049-056>058-063>065-088>090-097-040900-
...EASTERN AND SOUTHERN MISSOURI...

CITY           SKY/WX    TMP DP  RH WIND       PRES   REMARKS
ST. LOUIS INTL CLEAR     79  69  71 CALM      29.97S
SPIRIT OF STL  CLEAR     70  70 100 CALM      29.96R
COLUMBIA       CLEAR     72  69  90 S5        29.98R
JEFFERSON CITY CLEAR     70  68  93 SE3       29.96S
ROLLA          CLEAR     70  66  87 S7        29.98S
OSAGE BEACH    PTCLDY    72  66  83 SE5       29.98S
SPRINGFIELD    CLEAR     72  67  84 SE7       29.98S
BRANSON        CLEAR     72  66  83 CALM      30.00S
JOPLIN         PTCLDY    74  67  78 SE6       29.95F
WEST PLAINS    CLEAR     69  65  86 CALM      30.02S

$$

IAZ060-094-KSZ022-034>040-054-083-096-NEZ052-066-093-040900-
...KANSAS...SOUTHEAST NEBRASKA AND IOWA...

CITY           SKY/WX    TMP DP  RH WIND       PRES   REMARKS
TOPEKA         PTCLDY    75  68  78 S8        29.91S
MANHATTAN      MOCLDY    77  67  71 S9        29.88R
EMPORIA        CLOUDY    73  68  84 S10       29.92S
CHANUTE        MOCLDY    73  68  84 SE7       29.93F
WICHITA        CLOUDY    75  64  68 S9        29.90S
OMAHA          PTCLDY    75  68  78 SE15      29.87S
LINCOLN        MOCLDY    78  67  68 S12       29.86S
FALLS CITY     MOCLDY    72  68  87 S8        29.89S
LAMONI         CLEAR     72  67  84 S7        29.94S
DES MOINES     PTCLDY    74  68  81 S8        29.92F

$$



USA.gov is the U.S. government's official web portal to all federal, state and local government web resources and services.